Regional Weather Roundup
Issued by NWS

Home | Current Version | Previous Version | Graphics & Text | Print | Product List | Glossary On
Versions: 1 2 3 4 5 6 7 8 9 10 11 12 13 14 15 16 17 18 19 20 21 22 23 24 25 26 27 28 29 30 31 32 33 34 35 36 37 38 39 40 41 42 43 44 45 46 47 48 49 50
186
ASUS44 KJAN 031810
RWRMS

MISSISSIPPI HOURLY WEATHER ROUNDUP
NATIONAL WEATHER SERVICE JACKSON MS
1200 PM CST TUE MAR 03 2015

NOTE: "FAIR: INDICATES FEW OR NO CLOUDS BELOW 12,000 FEET WITH NO
SIGNIFICANT WEATHER AND/OR OBSTRUCTIONS TO VISIBILITY.

MSZ001>002-007>008-010>013-018>021-025>028-034>036-031900-
NORTHWEST MISSISSIPPI

CITY           SKY/WX    TMP DP  RH WIND       PRES   REMARKS
CLARKSDALE     CLOUDY    52  52 100 SW3       30.06F VSB 3/4
CLEVELAND      FOG       52  52 100 SW5       30.05F VSB<1/4
GREENWOOD      CLOUDY    67  64  90 S9        30.05F
6HR MIN TEMP:  48; 6HR MAX TEMP:  67;

GREENVILLE     FOG       54  53  97 SW5       30.05F VSB 1/4
6HR MIN TEMP:  42; 6HR MAX TEMP:  54;

OLIVE BRANCH   DRZL/FOG  54  54 100 S10       30.03F VSB 1/4
OXFORD         CLOUDY    55  55 100 S6        30.08S FOG
TUNICA         FOG       52  50  93 SW8       30.07R VSB 1/2
$$

MSZ003>006-009-014>017-022>024-029>033-037>039-031900-
NORTHEAST MISSISSIPPI

CITY           SKY/WX    TMP DP  RH WIND       PRES   REMARKS
COLUMBUS AFB   CLOUDY    59  59 100 S7        30.09F FOG
6HR MIN TEMP:  49; 6HR MAX TEMP:  59; 6HR PCP:  0.02;

CORINTH        CLOUDY    55  54  94 S7        30.06F FOG
GOLDN TRIANGLE CLOUDY    57  55  94 S5        30.10F FOG
STARKVILLE     DRIZZLE   59  57  94 S6        30.09F
TUPELO         CLOUDY    56  53  90 SW8       30.08F FOG
6HR MIN TEMP:  46; 6HR MAX TEMP:  56;

$$

MSZ040-058-031900-
CENTRAL MISSISSIPPI

CITY           SKY/WX    TMP DP  RH WIND       PRES   REMARKS
JACKSON INTL   PTSUNNY   73  65  75 S17G24    30.08F
6HR MIN TEMP:  54; 6HR MAX TEMP:  74;

JACKSON HAWKNS CLOUDY    72  65  78 S16       30.08F
6HR MIN TEMP:  54; 6HR MAX TEMP:  73;

MERIDIAN KEY   CLOUDY    70  65  84 S9        30.11F
6HR MIN TEMP:  53; 6HR MAX TEMP:  70; 6HR PCP:  0.01;

MERIDIAN NAS   CLOUDY    73  66  78 VRB7      30.11F
6HR MIN TEMP:  52; 6HR MAX TEMP:  73; 6HR PCP:  0.03;

VICKSBURG      CLOUDY    72  65  78 S7G17     30.06F
6HR MIN TEMP:  47; 6HR MAX TEMP:  74;

$$

MSZ059>079-031900-
SOUTH MISSISSIPPI

CITY           SKY/WX    TMP DP  RH WIND       PRES   REMARKS
BROOKHAVEN       N/A     73  73 100 S9        30.10F
HATTIESBURG    CLOUDY    74  66  76 S9        30.12F
6HR MIN TEMP:  60; 6HR MAX TEMP:  74; 6HR PCP: TRACE;

MCCOMB         CLOUDY    73  66  78 S15       30.09F
6HR MIN TEMP:  62; 6HR MAX TEMP:  74;

NATCHEZ        CLOUDY    70  66  88 S9        30.07F
6HR MIN TEMP:  48; 6HR MAX TEMP:  70;

PINE BELT      PTSUNNY   72  64  78 S9        30.12F
6HR MIN TEMP:  61; 6HR MAX TEMP:  72;

$$

MSZ080>082-031900-
COASTAL MISSISSIPPI

CITY           SKY/WX    TMP DP  RH WIND       PRES   REMARKS
BILOXI         PTSUNNY   72  66  83 SE14      30.13F
PASCAGOULA     CLOUDY    73  65  75 SE12      30.14F
6HR MIN TEMP:  62; 6HR MAX TEMP:  73;

GULFPORT       CLOUDY    70  64  81 SE15      30.13F
6HR MIN TEMP:  63; 6HR MAX TEMP:  71;

$$



USA.gov is the U.S. government's official web portal to all federal, state and local government web resources and services.